INTELSAT 602 1 20315U 89087A 09184.57903200 .00000029 00000-0 10000-3 0 9154 2 20315 006.9451 065.9721 0001208 028.2321 213.7708 01.00271850 69880 LEASAT 5 1 20410U 90002B 09183.73409743 -.00000317 00000-0 10000-3 0 1477 2 20410 008.3433 035.3068 0000426 228.1090 021.7370 01.00268588 56592 INTELSAT 603 1 20523U 90021A 09184.63125252 -.00000161 00000-0 10000-3 0 4866 2 20523 006.4304 067.5209 0001439 040.0778 021.4458 01.00272025 63645 INTELSAT 604 1 20667U 90056A 09181.71690253 +.00000013 +00000-0 +10000-3 0 07483 2 20667 006.7076 068.1247 0006303 185.8906 173.9754 00.98432871072261 INTELSAT 605 1 21653U 91055A 09180.47484917 -.00000228 +00000-0 +00000-0 0 08003 2 21653 004.4726 073.2465 0001876 207.0094 152.7793 00.99328696065426 INTELSAT 601 1 21765U 91075A 09184.77268906 .00000122 00000-0 10000-3 0 7975 2 21765 004.5249 072.1065 0000508 019.1128 156.3429 01.00273169 64585 NSS K (INTELSAT K) 1 21989U 92032A 09182.98484006 -.00000163 00000-0 10000-3 0 2970 2 21989 006.5467 069.5352 0090394 198.6583 160.8540 00.97180817 72299 INTELSAT 701 1 22871U 93066A 09182.38225537 .00000053 00000-0 10000-3 0 3782 2 22871 000.0054 293.4115 0002812 161.9172 141.8267 01.00272585 57344 INTELSAT 702 1 23124U 94034A 09183.86342475 -.00000001 +00000-0 +10000-3 0 02407 2 23124 000.0074 358.0776 0001935 093.1579 206.6135 01.00272548069279 NSS 703 (INTELSAT 703) 1 23305U 94064A 09183.88913241 .00000073 00000-0 10000-3 0 9605 2 23305 000.0124 051.9648 0002892 048.6162 197.5401 01.00272227 54080 INTELSAT 704 1 23461U 95001A 09182.44570571 -.00000088 00000-0 10000-3 0 9759 2 23461 000.1647 070.5155 0001998 078.4840 210.9338 00.99178666 53047 INTELSAT 705 1 23528U 95013A 09183.23080738 -.00000281 00000-0 10000-3 0 8748 2 23528 000.0248 257.1330 0001759 219.8400 196.4884 01.00270221 52229 INTELSAT 706 1 23571U 95023A 09183.90572935 .00000087 00000-0 10000-3 0 9559 2 23571 000.0108 004.4004 0003421 096.0689 201.4904 01.00273257 51721 INTELSAT 707 1 23816U 96015A 09183.91349566 -.00000283 00000-0 10000-3 0 8677 2 23816 000.0079 014.5429 0003106 095.5617 086.8213 01.00271854 48734 INTELSAT 709 1 23915U 96035A 09184.82956565 -.00000183 00000-0 10000-3 0 9673 2 23915 000.0048 019.1269 0003048 078.4339 208.1920 01.00272036 47825 INTELSAT 801 1 24742U 97009A 09183.58218723 -.00000224 00000-0 10000-3 0 6340 2 24742 000.7740 082.9262 0004496 357.6702 018.1960 01.00269543 45230 INTELSAT 802 1 24846U 97031A 09182.15778037 .00000155 00000-0 00000+0 0 8463 2 24846 000.0129 357.8246 0002784 107.9728 263.2419 01.00274488 44063 NSS 5 (INTELSAT 803) 1 24957U 97053A 09183.71472248 .00000072 00000-0 00000+0 0 7993 2 24957 000.0501 273.5526 0000279 034.4586 287.2744 01.00273869 43134 INTELSAT 804 1 25110U 97083A 09178.05237134 -.00000306 00000-0 10000-3 0 6515 2 25110 004.1351 072.9828 0004386 250.9552 108.7334 01.00227835 42279 NSS 806 (INTELSAT 806) 1 25239U 98014A 09182.11826789 -.00000261 00000-0 10000-3 0 4310 2 25239 000.0153 336.8858 0004410 074.1467 230.3762 01.00274436 41602 INTELSAT 805 1 25371U 98037A 09184.34848850 -.00000284 00000-0 10000-3 0 3776 2 25371 000.0193 267.7132 0003325 193.4041 250.3400 01.00271773 40462 INTELSAT 901 1 26824U 01024A 09183.35630184 -.00000140 00000-0 10000-3 0 4366 2 26824 000.0363 014.9575 0002725 079.4119 296.4000 01.00270850 29571 INTELSAT 902 1 26900U 01039A 09184.80047522 .00000034 00000-0 10000-3 0 4222 2 26900 000.0301 009.0546 0003281 094.4182 168.6193 01.00273081 28757 INTELSAT 904 1 27380U 02007A 09182.57023949 +.00000049 +00000-0 +10000-3 0 04349 2 27380 000.0205 033.2244 0002894 063.0009 088.7926 01.00272813026987 INTELSAT 903 1 27403U 02016A 09184.11755512 -.00000237 00000-0 10000-3 0 2309 2 27403 000.0165 053.1274 0002740 049.4090 186.5492 01.00271371 26657 INTELSAT 905 1 27438U 02027A 09184.18117510 -.00000183 00000-0 00000+0 0 781 2 27438 000.0449 243.5268 0002734 274.0817 164.4176 01.00270333 25979 INTELSAT 906 1 27513U 02041A 09183.87547037 .00000016 00000-0 10000-3 0 2047 2 27513 000.0096 353.5343 0002831 106.7869 200.0232 01.00272990 25020 INTELSAT 907 1 27683U 03007A 09180.96235340 -.00000205 00000-0 10000-3 0 7974 2 27683 000.0189 047.0028 0003214 051.8330 138.2549 01.00270944 23359 INTELSAT 1002 1 28358U 04022A 09181.96156429 -.00000012 00000-0 10000-3 0 7160 2 28358 000.0345 096.5084 0000820 335.5568 192.2464 01.00271736 18506 GALAXY 28 (IA 8) 1 28702U 05022A 09182.44112016 -.00000185 00000-0 10000-3 0 6678 2 28702 000.0062 336.6851 0001792 065.3256 307.3846 01.00270370 14777 GALAXY 14 1 28790U 05030A 09183.40357263 .00000038 00000-0 10000-3 0 7549 2 28790 000.0156 005.8561 0002329 094.9679 200.0106 01.00273187 14200 GALAXY 15 1 28884U 05041A 09183.30017363 +.00000080 +00000-0 +10000-3 0 06533 2 28884 000.0067 349.4497 0002262 127.9211 138.1447 01.00273004013638 GALAXY 16 1 29236U 06023A 09183.45421631 -.00000125 +00000-0 +10000-3 0 05438 2 29236 000.0485 140.8958 0003179 321.5034 242.7105 01.00270871011159 GALAXY 17 1 31307U 07016B 09183.36639514 -.00000173 00000-0 10000-3 0 3851 2 31307 000.0138 356.7637 0003779 135.5621 189.0797 01.00272019 7969 INTELSAT 11 (PAS 11) 1 32253U 07044B 09184.11931420 -.00000267 00000-0 10000-3 0 2457 2 32253 000.0292 093.1754 0002396 008.7414 179.1888 01.00270554 6421 HORIZONS 2 1 32388U 07063B 09182.40429417 -.00000252 00000-0 10000-3 0 2369 2 32388 000.0062 282.6805 0002291 168.3444 260.0237 01.00269553 5757 GALAXY 18 1 32951U 08024A 09181.53631333 .00000023 00000-0 10000-3 0 1812 2 32951 000.0189 326.1756 0002670 123.0429 259.5699 01.00272470 4086